www.pogodaiklimat.ru

Погода и климат >> Архив погоды >> Гана >> Такоради


ПОГОДА Такоради

  • Прогноз погоды Такоради
  • Монитор погоды Такоради

АРХИВ ПОГОДЫ Такоради

Время (UTC), дата Ветер
(напр.,м/с)
 
Видим.   Явления Облачность Т
(С)
Тd
(С)
f
(%)
Тe
(С)
Тes
(С)
Комфортность P
(гПа)
Po
(гПа)
Тmin
(С)
Tmax
(С)
R
(мм)
R24
(мм)
S
(см)
09 12.03 0 н/о
12 12.03 ЮЗ 5 15 км 1/1 420 м
[Cu med, cong]
+32.0 +26.8 74 +49 +59 опасность
перегрева
1019.3 1018.3
15 12.03 ЮЗ 6 18 км 1/1 450 м
[Cu med, cong]
+32.1 +27.3 76 +51 +55 опасность
перегрева
1009.3 1008.3
18 12.03 ЮЗ 4 18 км 1/1 420 м
[Cu med, cong]
+30.4 +26.8 81 +47 +47 опасность
перегрева
1009.6 1008.6 +32.2
21 12.03 ЮЗ 2 18 км ясно +29.3 +26.9 87 +46 +46 опасность
перегрева
1011.2 1010.2
00 13.03 ЮЗ 2 10 км ясно +28.3 +26.3 89 +43 +43 опасность
перегрева
1011.5 1010.5
06 13.03 штиль 0 7000 м дымка 3/3 330 м
[Sc]
+27.7 +25.9 90 +41 +41 опасность
перегрева
1009.5 1008.5 +27.1
12 13.03 ЮЗ 6 15 км 1/1 420 м
[Cu med, cong]
+31.9 +27.1 76 +50 +58 опасность
перегрева
1010.8 1009.8
18 13.03 ЮЗ 7 15 км 4/1 420 м
[Cu med, cong Ac lent Ci sp]
+30.1 +26.1 79 +45 +45 опасность
перегрева
1008.4 1007.4 +32.1
21 13.03 ЮЗ 4 12 км 1/1 360 м
[Sc]
+29.4 +26.4 84 +45 +45 опасность
перегрева
1010.3 1009.3
06 14.03 штиль 0 5000 м дымка 4/3 330 м
[Sc Ci fib]
+26.7 +25.7 94 +39 +39 очень
душно
1008.8 1007.8 +25.9
15 14.03 СЗ 5 16 км гроза без осадков 8/4 360 м
[Cb cap Cs]
+29.0 +23.2 71 +39 +43 очень
душно
1007.9 1006.9
00 15.03 штиль 0 12 км {гроза} 8/0
[Ac trans Cs]
+25.2 +23.3 89 +34 +34 очень
душно
1010.3 1009.3
09 15.03 ЮЗ 3 8000 м гроза без осадков 9/5 270 м
[Cb cap Ac As]
+26.5 +23.8 85 +36 +38 очень
душно
1011.5 1010.5
12 15.03 ЮЗ 2 10 км в посл. час гроза 9/5 300 м
[Sc Ac trans]
+29.0 +23.9 74 +40 +46 очень
душно
1010.6 1009.6
15 15.03 ЮЗ 4 15 км 8/4 360 м
[Cu Sc Ac trans]
+30.2 +25.3 75 +44 +47 опасность
перегрева
1008.4 1007.4
18 15.03 штиль 0 15 км 8/3 360 м
[Sc Ac trans Ci sp]
+28.5 +25.1 82 +41 +41 опасность
перегрева
1009.9 1008.9 +30.2
21 15.03 штиль 0 12 км 6/3 330 м
[Sc Ac trans]
+26.9 +24.7 88 +38 +38 очень
душно
1011.5 1010.5
00 16.03 СЗ 2 10 км 5/0
[Ac trans]
+26.5 +24.9 91 +38 +38 очень
душно
1011.4 1010.4
06 16.03 штиль 0 4000 м дымка 4/1 330 м
[Sc Ac lent Ci sp]
+25.1 +24.2 95 +35 +35 очень
душно
1009.7 1008.7 +24.2
09 16.03 Ю 3 10 км 6/3 360 м
[Cu med, cong Ac trans]
+30.0 +26.8 83 +47 +52 опасность
перегрева
1011.8 1010.8
15 16.03 ЮЗ 5 15 км 4/3 450 м
[Cu med, cong Ci sp]
+32.5 +26.6 71 +49 +54 опасность
перегрева
1009.3 1008.3
03 18.03 штиль 0 10 км 3/1 300 м
[Sc Ac lent]
+25.1 +24.2 95 +35 +35 очень
душно
1008.7 1007.7
06 18.03 штиль 0 7000 м дымка 8/1 300 м
[Sc Ac trans]
+25.0 +24.3 96 +35 +35 очень
душно
1009.1 1008.1 +24.3 11
12 18.03 ЮЗ 2 15 км 8/4 420 м
[Cu med, cong Ac trans]
+31.5 +26.3 74 +48 +56 опасность
перегрева
1011.2 1010.2
15 18.03 ЮЗ 5 15 км 1/1 420 м
[Cu med, cong Ci sp]
+31.6 +26.6 75 +49 +54 опасность
перегрева
1008.5 1007.5
18 18.03 ЮЗ 3 15 км ясно +29.8 +25.8 79 +44 +44 опасность
перегрева
1008.5 1007.5 +31.7
21 18.03 штиль 0 12 км ясно +28.1 +26.1 89 +42 +42 опасность
перегрева
1010.7 1009.7
00 19.03 штиль 0 16 км ясно +27.4 +26.0 92 +41 +41 опасность
перегрева
1010.9 1009.9

 

Местоположение метеостанции Такоради (Гана): широта 4.88 долгота -1.77 высота над уровнем моря 9 м.

В архиве по умолчанию представлена погода Такоради за последнюю неделю. Архивные данные за месяц целиком и за предыдущие месяцы, начиная с января 2011 года, Вы можете получить, выбрав интересующий диапазон дат из раскрывающегося списка и нажав кнопку "Ввод!".


*Определитесь, кто Вы:
робот инопланетянин человек

Внимание! Время в таблицах - всемирное. Для получения местного времени необходимо прибавить поправку, которая равна 1 ч.

Смотрите также архив погоды в соседних городах и на ближайших метеорологических станциях:

Погода в Аксиме (Гана) (51 км)
Погода в Солтпонде (Гана) (85 км)
Погода в Аким Ода (Гана) (146 км)
Погода в Сефви Беквай (Гана) (159 км)
Погода в Адиаке (Кот-д'Ивуар) (176 км)
Погода в Аккра (Гана) (194 км)
Погода в Кумаси (Гана) (206 км)
Погода в Тема (Гана) (213 км)
Погода в Кофоридуа (Гана) (215 км)
Погода в Абетифи (Гана) (229 км)

Пояснения к столбцам:

Ветер - указаны скорость ветра в м/с - средняя за 10 мин, порывы в срок и между сроками (в фигурных скобках) и направление, откуда дует ветер: С - северный, СВ - северо-восточный, В - восточный, ЮВ - юго-восточный, Ю - южный, ЮЗ - юго-западный, З - западный, СЗ - северо-западный.
Видимость - горизонтальная дальность видимости в метрах или километрах. При видимости от 1 до 10 км при отсутствии осадков обычно наблюдается дымка, при ухудшении видимости до 1 км и менее - туман. В сухую погоду видимость может ухудшаться дымом, пылью или мглою.
Явления - указаны атмосферные явления, наблюдавшиеся в срок или в последний час перед сроком; фигурными скобками обозначены явления, наблюдавшиеся между сроками (за 1-3 часа до срока); квадратными скобками обозначены град или гололедные отложения с указанием их диаметра в мм.
Облачность - указаны через наклонную черту общая и нижняя облачность в баллах и высота нижней границы облаков в метрах; квадратными скобками обозначены формы облаков: Ci - перистые, Cs - перисто-слоистые, Cc - перисто-кучевые, Ac - высококучевые, As - высокослоистые, Sc - слоисто-кучевые, Ns - слоисто-дождевые, Cu - кучевые, Cb - кучево-дождевые. Подробнее классификацию облаков см. в Атласе облаков (PDF).
T - Температура воздуха - температура, измеренная на высоте 2 м над землей.
Td - Температура точки росы - температура, при понижении до которой содержащийся в воздухе водяной пар достигнет насыщения.
f - Относительная влажность воздуха - влажноcть воздуха, измеренная на высоте 2 м над землей.
Te - Эффективная температура - температура, которую ощущает одетый по сезону человек в тени. Характеристика душности погоды. При расчете учитывается влияние влажности воздуха и скорости ветра на теплоощущения человека.
Tes - Эффективная температура на солнце - температура, которую ощущает человек, с поправкой на солнечный нагрев. Характеристика знойности погоды. Зависит от высоты солнца над горизонтом, облачности и скорости ветра. Ночью, в пасмурную погоду, а также при ветре 12 м/с и более поправка равна нулю.
P - Атмосферное давление - приведенное к уровню моря атмосферное давление.
Po - Атмосферное давление - измеренное на уровне метеостанции атмосферное давление.
Tmin - Минимальная температура - минимум температуры воздуха на высоте 2 м над землей.
Tmax - Максимальная температура - максимум температуры воздуха на высоте 2 м над землей.
R - Количество осадков - Количество выпавших осадков за период времени, мм. При наведении курсора мыши на число - период времени, за который выпало указанное количество осадков.
R24 - Количество осадков - Количество выпавших осадков за 24 часа, мм.
S - Снежный покров - Высота снежного покрова, см. При наведении курсора мыши на число - состояние снежного покрова и степень покрытия местности в баллах.